Spring Lake, NC

8:56 PM EDT on August 29, 2016 (GMT -0400)
Pope Field Airport

Weather History for KPOB - April, 2013

Change the Weather History Date:

Thursday, April 4, 2013

  Actual Average Record
Temperature  
Mean Temperature 46 °F -  
Max Temperature 48 °F 72 °F 89 °F (1999)
Min Temperature 41 °F 49 °F 32 °F (1992)
Degree Days  
Heating Degree Days 20    
Moisture  
Dew Point 38 °F    
Average Humidity 84    
Maximum Humidity 95    
Minimum Humidity 45    
Precipitation  
Precipitation 0.82 in - - ()
Sea Level Pressure  
Sea Level Pressure 30.10 in    
Wind  
Wind Speed 9 mph (ENE)    
Max Wind Speed 17 mph    
Max Gust Speed 26 mph    
Visibility 8 miles    
Events Rain    
Averages and records for this station are not official NWS values.
T = Trace of Precipitation, MM = Missing Value Source: NWS Daily Summary

Daily Weather History Graph

Daily Weather History Graph

Search for Another Location

Airport or City:

Trip Planner

Search our weather history database for the weather conditions in past years. The results will help you decide how hot, cold, wet, or windy it might be!

Date:

Astronomy

Apr. 04, 2013 Rise Set
Actual Time 6:58 AM EDT 7:40 PM EDT
Civil Twilight 6:32 AM EDT 8:05 PM EDT
Nautical Twilight 6:02 AM EDT 8:36 PM EDT
Astronomical Twilight 5:31 AM EDT 9:07 PM EDT
Moon 3:11 AM EDT (4/4) 2:08 PM EDT (4/4)
Length of Visible Light 13h 33m
Length of Day
12h 41m
Waning Crescent, 34% of the Moon is Illuminated
Apr 4
Waning Crescent
Apr 10
New
Apr 18
First Quarter
Apr 25
Full
May 2
Last Quarter

Hourly Weather History & Observations

Time (EDT) Temp. Windchill Dew Point Humidity Pressure Visibility Wind Dir Wind Speed Gust Speed Precip Events Conditions
12:58 AM 50.2 °F - 29.5 °F 45% 30.29 in 10.0 mi Calm Calm - N/A   Clear
1:58 AM 45.1 °F - 34.0 °F 65% 30.27 in 10.0 mi ENE 1.2 mph - N/A   Clear
2:58 AM 43.0 °F - 36.9 °F 79% 30.27 in 10.0 mi NNE 2.3 mph - N/A   Mostly Cloudy
3:58 AM 41.5 °F 38.6 °F 34.2 °F 75% 30.28 in 10.0 mi ENE 4.6 mph - N/A   Scattered Clouds
4:58 AM 43.5 °F 40.1 °F 31.1 °F 62% 30.28 in 10.0 mi ENE 5.8 mph - N/A   Mostly Cloudy
5:58 AM 43.7 °F 37.7 °F 29.8 °F 58% 30.30 in 10.0 mi ENE 11.5 mph - N/A   Partly Cloudy
6:58 AM 43.5 °F 38.3 °F 33.1 °F 67% 30.31 in 10.0 mi ENE 9.2 mph - N/A   Scattered Clouds
7:58 AM 44.2 °F 38.8 °F 33.1 °F 65% 30.33 in 10.0 mi ENE 10.4 mph - N/A   Clear
8:18 AM 44.6 °F 39.7 °F 32.0 °F 61% 30.32 in 10.0 mi ENE 9.2 mph - N/A   Partly Cloudy
8:40 AM 44.6 °F 38.4 °F 32.0 °F 61% 30.32 in 10.0 mi ENE 12.7 mph - N/A   Scattered Clouds
8:58 AM 44.1 °F 39.5 °F 32.5 °F 64% 30.33 in 10.0 mi East 8.1 mph - 0.00 in   Partly Cloudy
8:59 AM 44.6 °F 40.2 °F 32.0 °F 61% 30.32 in 10.0 mi ENE 8.1 mph - N/A   Light Drizzle
9:58 AM 43.7 °F 38.1 °F 34.7 °F 71% 30.31 in 10.0 mi East 10.4 mph - 0.00 in   Light Drizzle
10:51 AM 44.6 °F 39.2 °F 35.6 °F 71% 30.29 in 10.0 mi East 10.4 mph - N/A   Overcast
10:58 AM 44.6 °F 38.8 °F 34.5 °F 68% 30.30 in 10.0 mi ENE 11.5 mph - 0.00 in   Overcast
11:31 AM 46.4 °F 41.5 °F 33.8 °F 62% 30.27 in 10.0 mi ENE 10.4 mph - N/A Rain Light Rain
11:45 AM 44.6 °F 38.4 °F 33.8 °F 66% 30.26 in 10.0 mi ENE 12.7 mph - N/A   Overcast
11:58 AM 45.5 °F 40.8 °F 34.3 °F 65% 30.27 in 10.0 mi ENE 9.2 mph - 0.00 in   Overcast
12:03 PM 46.4 °F 42.4 °F 33.8 °F 62% 30.25 in 10.0 mi ENE 8.1 mph - N/A   Light Drizzle
12:58 PM 44.8 °F 40.4 °F 38.5 °F 79% 30.23 in 10.0 mi East 8.1 mph - 0.01 in Rain Light Rain
1:11 PM 44.6 °F 40.2 °F 39.2 °F 81% 30.22 in 10.0 mi NE 8.1 mph - N/A   Overcast
1:15 PM 44.6 °F 41.4 °F 39.2 °F 81% 30.22 in 10.0 mi NE 5.8 mph - N/A Rain Light Rain
1:58 PM 44.1 °F 37.7 °F 40.6 °F 88% 30.19 in 9.0 mi ENE 12.7 mph - 0.05 in Rain Light Rain
2:08 PM 44.6 °F 39.2 °F 41.0 °F 87% 30.17 in 7.0 mi ENE 10.4 mph - N/A Rain Light Rain
2:58 PM 43.5 °F 37.1 °F 41.2 °F 91% 30.14 in 6.0 mi ENE 12.7 mph - 0.17 in Rain Rain
3:01 PM 42.8 °F 36.2 °F 41.0 °F 93% 30.12 in 4.0 mi ENE 12.7 mph - N/A Rain Rain
3:58 PM 43.5 °F 37.5 °F 41.4 °F 92% 30.14 in 5.0 mi NE 11.5 mph - 0.10 in Rain Rain
4:18 PM 42.8 °F 35.8 °F 41.0 °F 93% 30.12 in 5.0 mi NE 13.8 mph - N/A Rain Light Rain
4:23 PM 42.8 °F 35.1 °F 41.0 °F 93% 30.11 in 4.0 mi NE 16.1 mph - N/A Rain Heavy Rain
4:28 PM 42.8 °F 35.8 °F 41.0 °F 93% 30.11 in 3.0 mi ENE 13.8 mph - N/A Rain Rain
4:33 PM 42.8 °F 35.1 °F 41.0 °F 93% 30.10 in 3.0 mi ENE 16.1 mph - N/A Rain Light Rain
4:38 PM 42.8 °F 35.8 °F 41.0 °F 93% 30.11 in 3.0 mi ENE 13.8 mph - N/A Rain Rain
4:43 PM 42.8 °F 35.8 °F 41.0 °F 93% 30.10 in 4.0 mi ENE 13.8 mph - N/A Rain Light Rain
4:48 PM 42.8 °F 35.1 °F 41.0 °F 93% 30.09 in 3.0 mi ENE 16.1 mph - N/A Rain Light Rain
4:58 PM 42.8 °F 35.4 °F 41.0 °F 93% 30.09 in 3.0 mi ENE 15.0 mph 24.2 mph 0.14 in Rain Light Rain
5:13 PM 42.8 °F 35.4 °F 41.0 °F 93% 30.06 in 6.0 mi ENE 15.0 mph - N/A Rain Light Rain
5:33 PM 42.8 °F 35.1 °F 41.0 °F 93% 30.06 in 7.0 mi ENE 16.1 mph - N/A Rain Light Rain
5:58 PM 42.4 °F 35.0 °F 40.8 °F 94% 30.06 in 7.0 mi ENE 15.0 mph 23.0 mph 0.06 in Rain Light Rain
6:18 PM 42.8 °F 35.1 °F 41.0 °F 93% 30.03 in 10.0 mi ENE 16.1 mph 25.3 mph N/A Rain Light Rain
6:33 PM 42.8 °F 35.4 °F 41.0 °F 93% 30.04 in 5.0 mi ENE 15.0 mph - N/A Rain Light Rain
6:43 PM 42.8 °F 36.2 °F 41.0 °F 93% 30.02 in 2.5 mi ENE 12.7 mph 23.0 mph N/A Rain Light Rain
6:53 PM 42.8 °F 36.2 °F 41.0 °F 93% 30.02 in 3.0 mi ENE 12.7 mph - N/A Rain Light Rain
6:58 PM 42.4 °F 34.7 °F 40.8 °F 94% 30.04 in 5.0 mi ENE 16.1 mph 21.9 mph 0.10 in Rain Light Rain
7:03 PM 42.8 °F 36.2 °F 41.0 °F 93% 30.01 in 3.0 mi ENE 12.7 mph 21.9 mph N/A Rain Light Rain
7:08 PM 42.8 °F 35.4 °F 41.0 °F 93% 30.00 in 2.5 mi ENE 15.0 mph 21.9 mph N/A Rain Light Rain
7:13 PM 42.8 °F 34.8 °F 41.0 °F 93% 30.00 in 3.0 mi NE 17.3 mph - N/A Rain Light Rain
7:43 PM 42.8 °F 34.8 °F 41.0 °F 93% 29.98 in 9.0 mi ENE 17.3 mph - N/A Rain Light Rain
7:53 PM 42.8 °F 35.1 °F 41.0 °F 93% 29.97 in 5.0 mi ENE 16.1 mph - N/A Rain Light Rain
7:58 PM 42.4 °F 34.7 °F 40.8 °F 94% 29.99 in 4.0 mi ENE 16.1 mph 23.0 mph 0.08 in Rain Light Rain
8:08 PM 42.8 °F 34.8 °F 41.0 °F 93% 29.96 in 7.0 mi ENE 17.3 mph 25.3 mph N/A Rain Light Rain
8:28 PM 42.8 °F 35.1 °F 39.2 °F 87% 29.96 in 10.0 mi ENE 16.1 mph 26.5 mph N/A Rain Light Rain
8:38 PM 41.0 °F 32.5 °F 39.2 °F 93% 29.96 in 6.0 mi ENE 17.3 mph 26.5 mph N/A Rain Light Rain
8:53 PM 41.0 °F 33.9 °F 39.2 °F 93% 29.96 in 6.0 mi ENE 12.7 mph - N/A Rain Light Rain
8:58 PM 41.5 °F 35.9 °F 39.9 °F 94% 29.97 in 5.0 mi NNE 9.2 mph - 0.04 in Rain Light Rain
9:08 PM 41.0 °F 32.8 °F 39.2 °F 93% 29.96 in 8.0 mi NE 16.1 mph 20.7 mph N/A Rain Light Rain
9:38 PM 41.0 °F 33.9 °F 39.2 °F 93% 29.95 in 5.0 mi NNE 12.7 mph - N/A Rain Rain
9:48 PM 41.0 °F 32.8 °F 39.2 °F 93% 29.95 in 6.0 mi NE 16.1 mph - N/A Rain Light Rain
9:58 PM 41.0 °F 33.5 °F 39.7 °F 95% 29.96 in 7.0 mi NE 13.8 mph - 0.06 in Rain Light Rain
10:23 PM 41.0 °F 34.7 °F 39.2 °F 93% 29.93 in 10.0 mi NE 10.4 mph - N/A   Light Drizzle
10:35 PM 41.0 °F 34.3 °F 39.2 °F 93% 29.92 in 10.0 mi NNE 11.5 mph - N/A   Overcast
10:45 PM 41.0 °F 34.3 °F 39.2 °F 93% 29.93 in 10.0 mi NNE 11.5 mph - N/A   Overcast
10:55 PM 41.0 °F 34.3 °F 39.2 °F 93% 29.93 in 10.0 mi NNE 11.5 mph - N/A   Light Drizzle
10:58 PM 41.0 °F 34.7 °F 39.7 °F 95% 29.94 in 10.0 mi NNE 10.4 mph - 0.01 in   Light Drizzle
11:08 PM 41.0 °F 34.7 °F 39.2 °F 93% 29.92 in 10.0 mi NE 10.4 mph - N/A   Overcast
11:13 PM 41.0 °F 35.2 °F 39.2 °F 93% 29.92 in 10.0 mi NNE 9.2 mph - N/A   Light Drizzle
11:24 PM 41.0 °F 34.7 °F 39.2 °F 93% 29.90 in 10.0 mi NNE 10.4 mph - N/A   Overcast
11:58 PM 41.5 °F 35.4 °F 40.3 °F 95% 29.90 in 10.0 mi North 10.4 mph - 0.00 in   Overcast